TimeMDT,TemperatureF,Dew PointF,Humidity,Sea Level PressureIn,VisibilityMPH,Wind Direction,Wind SpeedMPH,Gust SpeedMPH,PrecipitationIn,Events,Conditions,WindDirDegrees,DateUTC
12:55 AM,46.0,37.9,73,29.90,10.0,Calm,Calm,-,N/A,,Overcast,0,2013-05-16 06:55:00
1:55 AM,43.0,37.0,80,29.91,10.0,Calm,Calm,-,N/A,,Overcast,0,2013-05-16 07:55:00
2:55 AM,46.0,37.0,71,29.89,10.0,Calm,Calm,-,N/A,,Overcast,0,2013-05-16 08:55:00
3:55 AM,45.0,37.9,76,29.90,10.0,South,3.5,-,N/A,,Overcast,180,2013-05-16 09:55:00
4:55 AM,43.0,37.9,82,29.90,10.0,Calm,Calm,-,N/A,,Overcast,0,2013-05-16 10:55:00
5:55 AM,43.0,39.0,86,29.90,10.0,ENE,3.5,-,N/A,,Overcast,60,2013-05-16 11:55:00
6:55 AM,45.0,39.0,80,29.91,10.0,Calm,Calm,-,N/A,,Overcast,0,2013-05-16 12:55:00
7:55 AM,46.0,39.9,79,29.94,10.0,Calm,Calm,-,0.00,Rain,Light Rain,0,2013-05-16 13:55:00
8:55 AM,46.9,41.0,80,29.94,10.0,NE,3.5,-,0.01,Rain,Light Rain,40,2013-05-16 14:55:00
9:55 AM,48.9,42.1,77,29.94,10.0,Calm,Calm,-,0.00,,Overcast,0,2013-05-16 15:55:00
10:55 AM,52.0,42.1,69,29.94,10.0,Calm,Calm,-,0.00,,Overcast,0,2013-05-16 16:55:00
11:55 AM,55.0,42.1,62,29.94,10.0,Calm,Calm,-,N/A,,Overcast,0,2013-05-16 17:55:00
12:55 PM,57.0,39.9,53,29.92,10.0,Calm,Calm,-,0.00,,Mostly Cloudy,0,2013-05-16 18:55:00
1:23 PM,51.8,44.6,76,29.92,1.8,Calm,Calm,-,0.04,Rain,Heavy Rain,0,2013-05-16 19:23:00
1:30 PM,53.6,46.4,77,29.91,3.0,Calm,Calm,-,0.06,Rain,Light Rain,0,2013-05-16 19:30:00
1:55 PM,55.9,45.0,67,29.92,10.0,Variable,3.5,-,0.06,,Overcast,0,2013-05-16 19:55:00
2:55 PM,53.1,46.0,77,29.92,8.0,North,6.9,-,0.00,Rain,Light Rain,10,2013-05-16 20:55:00
4:55 PM,59.0,42.1,53,29.88,10.0,South,8.1,-,N/A,,Mostly Cloudy,170,2013-05-16 22:55:00
5:55 PM,61.0,42.1,50,29.87,10.0,South,5.8,-,N/A,,Mostly Cloudy,170,2013-05-16 23:55:00
6:55 PM,60.1,41.0,49,29.86,10.0,SSE,4.6,-,N/A,,Overcast,150,2013-05-17 00:55:00
7:55 PM,59.0,41.0,51,29.86,10.0,Calm,Calm,-,N/A,,Overcast,0,2013-05-17 01:55:00
8:55 PM,55.0,44.1,67,29.89,10.0,WNW,3.5,-,N/A,,Overcast,300,2013-05-17 02:55:00
9:55 PM,52.0,42.1,69,29.91,10.0,Calm,Calm,-,N/A,,Overcast,0,2013-05-17 03:55:00
10:55 PM,48.0,43.0,83,29.91,10.0,Calm,Calm,-,N/A,,Scattered Clouds,0,2013-05-17 04:55:00
11:55 PM,46.9,43.0,86,29.91,10.0,Calm,Calm,-,N/A,,Overcast,0,2013-05-17 05:55:00